Lid_Strength_Index
-0 -0 0 -0 -0 -0 0 1 2 4 3 2 1 -1 -1 -1 -1 -2 -2 -0 0 0 0 0 0 -0 -1 -1 -1 -0 -1 -1 -1 -1 -1 -1 -1 -1
-0 -0 -0 -0 -0 -0 0 0 1 2 3 1 1 -1 -1 -1 -1 -2 -2 -0 1 1 1 1 1 1 0 -0 -0 -0 -0 -0 -0 -0 -0 -0 -0 -1
-0 -0 0 -1 0 0 -0 0 1 1 3 1 0 -1 -1 -1 -1 -2 -2 -1 -1 2 2 1 2 1 1 1 1 1 1 1 1 0 -0 -0 -0 -0
0 -0 0 0 -0 -0 0 0 0 0 1 2 1 1 -0 -1 -1 -1 -1 -1 -1 1 2 2 2 2 2 2 2 2 2 2 2 2 1 1 0 0
-0 0 0 0 0 0 0 0 1 0 1 2 2 0 0 -0 -0 -1 -1 -1 -1 -0 2 2 2 2 3 3 4 4 5 5 4 4 4 3 2 1
-0 -0 0 0 0 0 0 0 0 1 1 1 2 1 1 -0 -0 1 1 0 0 -0 -0 1 1 2 3 4 4 4 6 6 7 6 6 6 5 4
0 -0 -0 0 1 0 0 0 0 1 1 2 2 2 2 1 2 1 1 1 0 -0 0 -0 -1 -1 -1 3 1 3 5 6 7 7 7 7 7 6
1 0 -0 0 0 2 2 1 0 1 1 2 2 2 1 1 1 1 1 1 3 -1 1 1 -1 0 -1 -1 1 2 4 5 6 7 7 7 7 7
0 0 1 0 0 -0 2 2 2 2 1 1 1 2 1 0 0 1 1 1 2 -0 0 2 0 0 -1 0 4 3 4 5 5 6 7 7 8 8
0 0 1 0 0 0 0 0 0 0 0 0 0 0 -0 -0 -0 -0 0 0 0 0 0 3 0 1 -1 -1 5 5 5 6 6 6 7 8 8 9
-0 -0 0 0 2 4 1 1 1 1 2 3 3 3 4 4 1 0 1 2 3 2 0 1 1 1 0 -0 1 6 7 7 7 7 7 8 10 10
0 -0 2 1 4 6 1 1 2 1 1 0 0 1 2 -0 4 -0 1 2 2 3 -0 2 1 1 2 -0 -0 0 1 8 9 9 8 9 10 2
1 1 0 3 5 6 6 1 1 1 1 1 1 1 0 0 -0 -0 -0 1 2 2 0 -0 1 1 1 2 1 -0 -0 2 1 5 10 10 10 8
1 1 0 4 7 7 6 3 5 4 0 1 2 2 1 1 0 -0 -1 -0 -1 0 -1 -1 1 1 2 2 3 0 -0 -1 -1 -0 0 5 10 9
0 1 4 5 6 6 7 6 6 1 1 2 2 2 1 0 -0 -0 -1 -1 -1 -1 -1 -1 0 0 1 2 2 1 2 0 -0 -0 -0 -0 0 1
1 1 1 2 4 2 2 4 4 2 1 2 2 1 1 1 1 0 1 1 1 1 -1 -2 -1 -0 1 1 1 2 1 2 0 0 -0 -0 -1 -1
3 0 1 2 2 2 2 1 1 1 1 1 1 1 1 1 1 1 1 1 2 2 2 0 -1 -1 -0 0 2 1 1 1 1 1 0 1 0 -0
2 2 2 2 2 2 2 2 2 2 1 1 2 2 2 1 2 1 1 2 2 2 2 1 1 2 2 1 2 1 1 1 1 0 0 2 1 -0
4 3 3 2 2 2 2 2 2 1 0 1 1 1 1 1 2 1 1 2 2 2 2 1 1 3 4 5 1 4 2 1 1 2 1 1 2 0
2 2 2 2 2 2 2 1 1 1 1 1 1 1 1 1 2 2 2 2 2 2 2 2 2 2 3 3 3 1 6 1 1 2 1 0 0 5
2 2 1 1 1 1 1 1 1 1 1 1 1 1 1 1 2 2 2 4 3 2 3 2 1 2 0 0 3 2 1 7 3 1 1 1 2 2
2 1 2 1 1 1 1 1 1 1 1 1 1 1 1 1 2 2 2 3 2 2 3 1 1 1 2 2 3 2 2 0 5 7 6 4 1 4
3 2 1 1 1 1 1 1 1 2 1 1 2 2 1 2 1 1 1 2 2 2 2 2 2 1 2 2 3 2 2 2 1 1 1 4 6 5